Location: ???????
(41.4154°N, 22.7259°E)
Time: 22:49:55
(UTC+00:00)

Daily predictions for brighter satellites

Satellite Brightness Start Highest point End
(mag) Time Altitude Azimuth Time Altitude Azimuth Time Altitude Azimuth
BREEZE-M DEB (TANK) 4.1 16:32:39 10° NW 16:36:39 56° NNE 16:51:50 10° ESE
USA 215 4.3 16:38:22 10° ENE 16:43:57 31° NNE 16:49:32 10° NW
SKYMED 2 3.7 16:40:28 10° NNE 16:44:50 86° WNW 16:49:10 10° SSW
Cosmos 2074 Rocket 4.1 16:40:24 10° S 16:46:30 59° E 16:52:40 10° NNE
Landsat 5 3.6 16:42:41 10° N 16:46:39 77° WNW 16:50:43 10° SSW
Okean-O 3.8 16:45:42 10° ESE 16:49:14 24° ENE 16:52:47 10° NNE
Spot 2 3.9 16:51:17 10° SSE 16:55:29 73° ENE 16:59:34 10° N
Atlas Centaur 2 3.9 16:50:27 10° WSW 16:57:45 37° S 17:05:22 10° ESE
Meteor 2-12 Rocket 4.5 16:53:28 10° S 16:59:35 88° E 17:05:42 10° N
Cosmos 1378 Rocket 3.5 16:55:46 10° N 17:00:12 84° E 17:04:39 10° S
Cosmos 1908 Rocket 3.6 16:56:47 10° S 17:01:11 63° E 17:05:36 10° NNE
IRAS Rocket 4.3 16:57:23 10° NNE 17:03:04 89° WNW 17:08:40 10° SSW
ARGOS 3.2 17:00:32 10° SSE 17:05:54 90° E 17:11:18 10° NNW
HJ-1C 3.6 17:04:17 10° SSE 17:07:24 43° ENE 17:10:32 10° N
OBJECT-B 2.7 17:10:25 13° ENE 17:10:28 13° ENE 17:12:02 10° NE
NOSS 3-2 (A) 4.1 17:07:24 10° SSE 17:11:52 27° ESE 17:16:46 10° NE
H-2A R/B 3.2 17:08:33 10° S 17:13:22 46° W 17:18:21 10° NNW
Cosmos 1184 Rocket 3.9 17:11:56 10° NNE 17:14:33 23° ENE 17:15:43 19° ESE
Cosmos 1346 Rocket 3.4 17:11:12 10° N 17:14:57 36° ENE 17:18:41 10° SE
YAOGAN 1 2.5 17:10:42 10° SSE 17:15:00 75° ENE 17:19:20 10° N
Cosmos 2082 Rocket 4.4 17:10:16 10° NW 17:15:03 28° WSW 17:19:48 10° SSW
Cosmos 1943 Rocket 2.9 17:10:11 10° SW 17:15:38 56° WNW 17:21:11 10° NNE
SJ 16-02 1.6 17:12:53 10° S 17:17:06 46° ESE 17:21:21 10° NNE
Okean O Rocket 3.1 17:13:06 10° SSW 17:17:12 39° W 17:21:18 10° NNW
DMSP B5D2-2 4.1 17:12:00 10° NNE 17:17:13 58° E 17:22:24 10° S
Cosmos 1238 Rocket 3.9 17:16:33 10° S 17:22:52 87° W 17:28:25 10° N
USA 186 3.4 17:23:51 17° ENE 17:23:51 17° ENE 17:25:38 10° NNE
CZ-2C R/B 3.6 17:21:58 10° N 17:27:22 54° WNW 17:32:48 10° SSW
COSMOS 2455 3.5 17:23:42 10° NW 17:29:37 57° WSW 17:35:28 10° S
IRS-1C Rocket 4.0 17:25:06 10° SSE 17:30:21 79° ENE 17:35:37 10° NNW
Cosmos 1295 Rocket 4.4 17:24:47 10° S 17:31:00 77° E 17:37:19 10° N
ISS -1.2 17:30:23 10° NW 17:32:20 14° N 17:34:18 10° NE
Geosat 3.9 17:29:49 10° NNE 17:34:53 83° ESE 17:39:54 10° SSW
Cosmos 2369 Rocket 2.3 17:29:38 10° SSW 17:35:18 83° WNW 17:40:59 10° NNE
PSLV R/B 4.1 17:34:38 10° NNE 17:38:38 46° E 17:42:33 10° S
Okean 2 Rocket 4.0 17:42:36 27° ENE 17:42:36 27° ENE 17:45:43 10° NNE
CSL-04 Debris 4.1 17:38:18 10° SSE 17:43:39 72° ENE 17:49:02 10° N
Cosmos 1777 Rocket 4.3 17:39:10 10° SSW 17:44:24 72° WNW 17:49:38 10° NNE
USA 276 4.3 17:45:32 10° NW 17:47:44 17° N 17:48:35 16° NNE
Cosmos 1674 3.2 17:44:49 10° NNW 17:48:29 59° W 17:52:09 10° S
H-2A R/B 3.1 17:45:28 10° N 17:49:28 46° WNW 17:53:23 10° SW
Lacrosse 5 rocket 2.2 17:46:05 10° NW 17:50:29 50° SW 17:53:15 20° SSE
Cosmos 1656 Rocket 3.6 17:46:09 10° SSW 17:51:44 87° WNW 17:57:17 10° NNE
Cosmos 1782 Rocket 4.0 17:48:32 10° SSW 17:52:57 65° W 17:57:21 10° N
Sich 1 Rocket 3.6 17:51:14 10° S 17:55:41 56° E 18:00:08 10° NNE
Cosmos 1626 2.1 17:52:58 10° N 17:56:41 79° W 17:59:05 21° S
APEX 3.7 17:52:34 10° NNW 17:56:56 43° ENE 17:57:10 42° ENE
SeaSat 1 3.0 17:56:27 34° E 17:57:28 38° NE 18:02:01 10° N
ATLAS CENTAUR R/B 3.5 17:55:03 10° NW 17:59:09 29° WSW 18:03:20 10° S
SL-8 Rocket 4.0 17:53:23 10° S 17:59:30 58° E 18:05:41 10° NNE
Cosmos 1805 3.6 17:56:04 10° SSW 17:59:54 64° W 18:03:46 10° N
Cosmos 1315 Rocket 2.9 17:58:25 10° SSW 18:02:23 77° W 18:06:26 10° N
Cosmos 1025 Rocket 2.9 17:58:54 10° N 18:03:13 64° E 18:04:07 50° SE
EO 1 Delta rocket 4.4 18:03:44 40° E 18:04:20 42° ENE 18:09:31 10° N
SL-14 R/B 3.1 18:01:01 10° N 18:04:58 70° E 18:05:20 64° ESE
MetOp-A 4.3 18:01:05 10° S 18:06:25 73° WSW 18:11:48 10° NNW
SJ-6B 2.9 18:06:15 59° E 18:06:28 60° ENE 18:10:31 10° N
CZ-4B R/B 2.6 18:04:11 10° N 18:07:06 39° WNW 18:10:04 10° SW
Meteor 2-10 4.2 18:04:32 10° S 18:10:03 57° E 18:15:27 10° NNE
Cosmos 1339 Rocket 4.3 18:04:05 10° N 18:10:15 70° E 18:13:45 27° SSE
CZ-4 R/B 3.8 18:07:49 10° SW 18:10:48 21° W 18:13:48 10° NW
Cosmos 1680 Rocket 4.3 18:08:33 10° N 18:13:00 33° NE 18:13:00 33° NE
Cosmos 1733 4.5 18:15:59 10° SSW 18:19:34 40° WNW 18:23:11 10° N
Meteor 1-15 Rocket 4.4 18:14:18 10° SSW 18:19:50 73° W 18:25:27 10° N
Cosmos 1727 Rocket 4.4 18:16:01 10° N 18:21:55 42° ENE 18:21:55 42° ENE
Cosmos 1975 Rocket 4.1 18:18:31 10° NNW 18:22:45 44° W 18:26:43 12° SSW
NOSS 3-2 (C) 3.5 18:17:38 10° SSW 18:31:34 - NE 18:21:45 45° SSE
Cosmos 1300 Rocket 3.9 18:20:26 10° SSW 18:24:47 65° W 18:29:09 10° N
Okean-O 4.3 18:21:35 10° SSW 18:25:32 32° W 18:29:32 10° NNW
USA 215 3.2 18:24:14 46° ESE 18:26:18 74° NE 18:32:52 10° NW
Meteor 1-22 Rocket 4.1 18:21:39 10° S 18:27:11 78° E 18:33:01 10° NNE
CSL-04 Rocket 4.4 18:23:21 10° S 18:28:32 50° W 18:33:50 10° NNW
CENTAUR R/B 2.2 18:23:43 10° SSW 18:29:22 78° ESE 18:36:10 10° NE
Cosmos 1766 4.3 18:26:22 10° SSW 18:30:08 44° WNW 18:33:53 10° N
Cosmos 990 Rocket 4.1 18:28:51 10° SSW 18:35:02 57° NE 18:39:11 10° NNE
Meteor 2-5 Rocket 3.6 18:32:07 10° NNW 18:37:42 83° W 18:38:59 55° S
Resurs 01 Rocket 3.4 18:43:13 22° NNE 18:43:13 22° NNE 18:45:00 10° N
Ariane Rocket 3.4 18:42:21 52° NNE 18:42:21 52° NNE 18:46:22 10° N
OBJECT-B 3.2 18:43:19 23° WNW 18:43:19 23° WNW 18:45:04 10° NW
Resurs 1-3 4.4 18:44:33 45° N 18:44:33 45° N 18:47:36 10° NNW
Helios 1A Rocket 4.2 18:44:59 35° NNW 18:44:59 35° NNW 18:47:25 10° NNW
Cosmos 2366 rocket 4.0 18:37:53 10° S 18:44:01 79° W 18:50:12 10° N
Atlas Centaur 2 3.8 18:39:20 10° WSW 18:46:49 36° S 18:47:58 34° S
Cosmos 1241 Rocket 4.3 18:43:09 10° NNW 18:49:27 80° ENE 18:49:35 79° ENE
USA 238 DEB 3.6 18:47:11 10° SW 18:53:38 82° NW 19:00:30 10° NNE
USA 238 3.5 18:47:17 10° SW 18:53:45 82° NW 19:00:35 10° NE
SJ 16-02 4.2 18:52:58 10° WSW 18:55:56 17° WNW 18:58:54 10° NNW
Cosmos 2218 Rocket 4.3 18:50:37 10° SSW 18:56:41 62° W 19:02:50 10° N
Cosmos 2297 Rocket 3.9 18:56:24 10° N 18:59:03 21° NNE 18:59:03 21° NNE
NOSS 3-2 (A) 4.1 18:56:52 10° WSW 19:02:13 49° NW 19:08:23 10° NNE
ISS -0.3 19:07:12 10° NW 19:07:19 11° NW 19:07:19 11° NW
Cosmos 2227 Rocket 4.1 19:18:59 10° N 19:21:08 19° NNE 19:21:08 19° NNE
USA 281 4.3 19:25:39 10° NNE 19:29:01 33° NNE 19:29:01 33° NNE
SeaSat 1 4.3 19:36:15 26° W 19:36:15 26° W 19:39:17 10° NW
CENTAUR R/B 4.4 20:15:50 10° W 20:20:54 26° NNW 20:26:46 10° NNE
